SCP
0 0 0 0 0 0 0 0 0 0 0 0 0 0 0 0 0 0 0 0 0 -0 0 0 0 0 0 0 0 0 0 0 0 0 0 0 0 0 0 0 0 0 0 0
0 0 0 0 0 0 0 0 0 0 0 0 0 0 0 0 0 0 0 0 0 0 0 0 0 0 0 0 0 0 0 0 0 0 0 0 0 0 0 0 0 0 0 0
0 0 0 0 0 0 0 0 0 0 0 0 0 0 0 0 0 0 0 0 0 0 0 0 0 0 0 0 0 0 0 0 0 0 0 0 0 0 0 0 0 0 0 0
0 0 0 0 0 0 0 0 0 0 0 0 0 0 0 0 0 0 0 0 0 0 0 0 0 0 0 0 0 0 0 0 0 0 0 0 0 0 0 0 0 0 0 0
0 0 0 0 0 0 0 0 0 0 0 0 0 0 0 0 0 0 0 0 0 0 0 0 0 0 0 0 0 0 0 0 0 0 0 0 0 0 0 0 0 0 0 0
0 0 0 0 0 0 0 0 0 0 0 0 0 0 0 0 0 0 0 0 0 0 0 0 0 0 0 0 0 0 0 0 0 0 0 0 0 0 0 0 0 0 0 0
0 0 0 0 0 0 0 0 0 0 0 0 0 0 0 0 0 0 0 0 0 0 0 0 0 0 0 0 0 0 0 0 0 0 0 0 0 0 0 0 0 0 0 0
0 0 0 0 0 0 0 0 0 0 0 0 0 0 0 0 0 0 0 0 0 0 0 0 0 0 0 0 0 0 0 0 0 0 0 0 0 0 0 0 0 0 0 0
0 0 0 0 0 0 0 0 0 0 0 0 0 0 0 0 0 0 0 0 0 0 0 0 0 0 0 0 0 0 0 0 0 0 0 0 0 0 0 0 0 0 0 0
0 0 0 0 0 0 0 0 0 0 0 0 0 0 0 0 0 0 0 0 0 0 0 0 0 0 0 0 0 0 0 0 0 0 0 0 0 0 0 0 0 0 0 0
0 0 0 0 0 0 0 0 0 0 0 0 0 0 0 0 0 0 0 0 0 0 0 0 0 0 0 0 0 0 0 0 0 0 0 0 0 0 0 0 0 0 0 0
0 0 0 0 0 0 0 0 0 0 0 0 0 0 0 0 0 0 0 0 0 0 0 0 0 0 0 0 0 0 0 0 0 0 0 0 0 0 0 0 0 0 0 0
0 0 0 0 0 0 0 0 0 0 0 0 0 0 0 0 0 0 0 0 0 0 0 0 0 0 0 0 0 0 0 0 0 0 0 0 0 0 0 0 0 0 0 0
0 0 0 0 0 0 0 0 0 0 0 0 0 0 0 0 0 0 0 0 0 0 0 0 0 0 0 0 0 0 0 0 0 0 0 0 0 0 0 0 0 0 0 0
0 0 0 0 0 0 0 0 0 0 0 0 0 0 0 0 0 0 0 0 0 0 0 0 0 0 0 0 0 0 0 0 0 0 0 0 0 0 0 0 0 0 0 0
0 0 0 0 0 0 0 0 0 0 0 0 0 0 0 0 0 0 0 0 0 0 0 0 0 0 0 0 0 0 0 0 0 0 0 0 0 0 0 0 0 0 0 0
0 0 0 0 0 0 0 0 0 0 0 0 0 0 0 0 0 0 0 0 0 0 0 0 0 0 0 0 0 0 0 0 0 0 0 0 0 0 0 0 0 0 0 0
0 0 0 0 0 0 0 0 0 0 0 0 0 0 0 0 0 0 0 0 0 0 0 0 0 0 0 0 0 0 0 0 0 0 0 0 0 0 0 0 0 0 0 0
0 0 0 0 0 0 0 0 0 0 0 0 0 0 0 0 0 0 0 0 0 0 0 0 0 0 0 0 0 0 0 0 0 0 0 0 0 0 0 0 0 0 0 0
0 0 0 0 0 0 0 0 0 0 0 0 0 0 0 0 0 0 0 0 0 0 0 0 0 0 0 0 0 0 0 0 0 0 0 0 0 0 0 0 0 0 0 0
0 0 0 0 0 0 0 0 0 0 0 0 0 0 0 0 0 0 0 0 0 0 0 0 0 0 0 0 0 0 0 0 0 0 0 0 0 0 0 0 0 0 0 0
0 0 0 0 0 0 0 0 0 0 0 0 0 0 0 0 0 0 0 0 0 0 0 0 0 0 0 0 0 0 0 0 0 0 0 0 0 0 0 0 0 0 0 0
0 0 0 0 0 0 0 0 0 0 0 0 0 0 0 0 0 0 0 0 0 0 0 0 0 0 0 0 0 0 0 0 0 0 0 0 0 0 0 0 0 0 0 0
0 0 0 0 0 0 0 0 0 0 0 0 0 0 0 0 0 0 0 0 0 0 0 0 0 0 0 0 0 0 0 0 0 0 0 0 0 0 0 0 0 0 0 0
0 0 0 0 0 0 0 0 0 0 0 0 0 0 0 0 0 0 0 0 0 0 0 0 0 0 0 0 0 0 0 0 0 0 0 0 0 0 0 0 0 0 0 0
0 0 0 0 0 0 0 0 0 0 0 0 0 0 0 0 0 0 0 0 0 0 0 0 0 0 0 0 0 0 0 0 0 0 0 0 0 0 0 0 0 0 0 0
Wind_Speed
2 5 10 12 10 1 4 5 5 3 1 4 11 16 18 15 12 15 17 16 16 16 17 13 13 14 15 15 16 16 15 14 12 9 8 8 8 6 5 5 7 9 10 12
5 11 8 5 6 4 5 6 7 4 0 5 9 17 18 18 18 18 19 19 19 18 16 12 12 13 16 17 17 17 17 16 15 12 9 6 7 5 5 4 5 8 9 11
14 3 6 8 7 8 8 10 8 5 1 4 7 15 13 11 10 13 17 19 21 20 20 16 12 14 15 16 18 16 18 18 17 15 9 5 4 3 4 6 6 7 9 10
11 5 6 7 10 11 10 8 7 4 5 5 3 10 10 6 10 12 16 17 20 20 18 16 13 13 15 16 15 16 17 17 17 16 14 15 12 12 12 7 6 7 8 10
10 9 9 10 9 12 4 4 4 3 5 7 7 9 14 4 12 16 18 19 19 17 14 13 12 12 13 13 13 14 16 17 17 17 17 17 14 12 8 8 9 9 8 9
1 3 5 5 3 6 9 7 5 2 2 11 9 12 14 9 12 11 11 13 13 10 8 8 7 7 8 9 11 12 15 17 17 18 18 18 18 15 12 12 11 9 7 7
6 5 4 4 8 5 8 7 4 5 6 12 5 11 15 10 12 10 11 12 7 5 6 6 6 6 7 8 11 12 15 16 17 18 18 18 18 16 16 15 13 11 8 8
13 11 13 11 10 13 13 13 11 9 8 7 4 14 11 6 9 12 15 16 13 12 9 8 8 8 7 8 10 12 14 15 16 17 17 16 17 12 12 14 12 13 11 11
13 10 4 8 2 13 11 12 8 4 1 7 12 13 11 7 12 16 17 14 14 12 9 8 8 7 7 7 10 12 13 14 15 16 16 16 17 15 14 13 12 10 10 9
9 7 3 3 2 2 4 8 6 9 8 11 15 17 12 5 13 15 13 13 13 9 7 6 5 5 5 6 7 10 12 13 14 15 15 13 16 16 15 13 14 12 12 10
9 9 4 6 14 15 11 9 9 8 8 9 10 14 6 10 8 7 7 7 6 6 5 4 3 3 4 5 7 9 11 13 13 15 15 16 15 15 15 14 15 14 13 13
8 6 8 10 4 4 13 15 16 11 9 7 8 16 5 8 6 6 7 6 4 4 5 4 3 3 5 6 8 10 11 13 14 14 15 16 16 16 16 17 16 14 14 14
7 6 4 4 4 5 9 11 16 13 7 9 11 18 2 5 6 7 8 8 5 5 5 5 5 6 7 8 9 10 12 13 13 13 15 16 17 18 18 17 15 15 14 14
5 7 12 16 7 8 11 13 16 16 11 16 23 29 22 11 8 7 7 8 7 7 7 8 8 9 9 9 10 11 12 12 12 14 15 17 18 19 18 16 15 15 15 15
8 10 14 20 16 9 11 13 16 21 24 22 26 29 33 22 15 14 12 11 11 12 12 12 12 11 11 10 10 12 12 12 13 14 16 19 17 16 15 15 14 14 14 15
9 9 10 16 22 18 16 17 19 24 24 28 29 33 33 24 16 15 15 14 16 16 16 16 15 13 13 13 12 11 13 12 13 16 17 16 14 13 13 13 12 13 13 13
6 6 7 14 15 11 18 24 28 26 26 23 30 35 28 23 20 19 18 16 18 19 19 19 18 16 13 13 11 12 12 10 12 14 13 11 11 12 13 12 12 14 14 13
11 8 7 9 10 22 17 18 25 29 30 28 23 24 27 23 18 17 18 17 19 19 19 18 16 16 14 10 10 9 7 8 10 12 11 10 11 12 11 12 14 14 12 12
18 15 10 9 17 17 15 14 15 19 26 26 29 31 33 25 17 26 21 17 22 20 16 13 10 10 10 8 7 5 6 7 9 10 11 10 10 10 10 12 13 11 10 10
21 20 16 15 18 16 14 8 8 11 18 20 19 23 26 20 18 22 10 8 11 8 5 5 5 5 6 6 3 3 5 6 8 8 7 7 8 8 10 10 9 8 7 7
9 14 19 21 22 14 10 4 8 12 13 8 10 17 20 22 20 15 4 2 1 1 1 2 2 2 4 5 2 2 2 3 3 3 4 5 6 7 7 6 6 6 6 6
10 9 13 15 19 16 4 5 10 7 5 7 8 9 12 15 13 8 5 3 2 1 0 1 1 2 4 4 1 2 2 1 3 4 5 5 5 5 6 7 6 7 7 7
13 12 8 9 9 5 4 8 8 6 8 10 10 9 9 10 9 7 4 3 2 1 1 2 3 4 5 6 4 4 3 4 5 6 6 6 6 6 6 7 8 7 7 6
7 3 8 10 11 11 12 12 11 9 12 13 11 10 8 10 9 6 4 4 3 2 2 3 4 5 5 6 6 5 4 5 6 7 7 6 7 7 6 5 6 6 6 6
7 6 8 12 11 10 10 10 11 10 11 12 12 9 9 9 9 6 5 5 4 3 3 3 4 5 5 5 6 6 4 5 7 7 6 6 6 6 6 5 4 4 4 5
15 15 15 14 9 9 13 12 10 11 12 11 10 9 6 6 6 5 5 4 4 4 5 5 5 5 5 6 7 7 5 4 6 6 5 4 5 5 5 5 4 5 4 4
Wind_Direction
93 190 210 209 210 195 174 194 221 231 99 241 252 261 268 270 253 258 260 259 255 253 253 239 219 209 208 208 207 206 205 201 193 190 192 197 204 200 201 202 196 190 180 174
164 224 221 138 149 145 173 215 244 255 214 254 278 274 269 264 257 253 256 257 256 255 253 237 219 208 207 208 207 207 207 201 198 198 194 197 190 194 194 184 195 190 180 174
209 196 152 152 170 192 212 229 239 236 259 235 290 279 252 251 255 257 254 255 258 256 255 249 224 215 212 212 210 207 206 203 200 196 185 161 157 159 180 195 194 191 183 177
224 163 149 176 196 195 226 227 231 222 255 259 239 283 274 243 261 257 255 250 250 250 251 252 241 225 218 218 213 212 208 205 200 194 193 192 195 200 200 189 182 179 185 182
209 180 176 193 198 190 181 104 156 202 238 269 218 250 273 245 259 255 252 253 253 256 257 256 249 237 228 218 211 209 208 207 202 200 201 203 208 210 192 178 178 179 183 185
197 181 214 197 112 159 131 108 89 95 228 261 222 224 263 236 244 253 249 252 257 266 269 267 259 243 231 213 206 205 206 208 205 204 206 208 209 203 188 187 182 181 180 185
208 214 199 150 120 140 175 162 199 223 224 250 157 235 254 238 240 253 268 273 274 276 274 269 259 243 225 209 203 202 205 209 206 208 211 212 214 208 203 197 191 184 182 190
209 221 193 191 184 173 193 200 207 225 232 259 189 242 256 251 273 272 266 268 277 273 266 261 258 252 233 211 203 203 207 210 207 210 213 214 215 211 209 204 195 193 194 193
208 228 158 192 203 167 178 218 234 239 254 277 258 257 272 249 260 255 255 262 267 271 272 264 257 248 234 214 204 205 207 211 210 211 213 214 214 213 209 202 201 201 200 189
199 216 152 147 136 273 199 161 155 201 221 243 255 260 261 225 239 245 251 257 265 274 277 270 255 244 233 219 209 208 211 213 213 212 213 215 215 215 212 203 202 200 197 186
210 220 178 170 201 194 171 187 201 202 218 226 252 258 222 220 232 243 251 253 267 282 284 279 266 251 231 216 209 209 213 215 215 213 213 215 216 215 213 209 206 201 194 188
205 219 230 219 211 250 213 207 194 199 214 225 250 265 189 218 238 245 263 273 273 274 275 272 267 260 243 228 217 215 214 216 215 212 214 216 217 215 215 214 210 202 196 193
158 182 212 220 207 196 219 218 215 223 208 209 230 259 193 222 244 244 256 268 266 261 265 264 259 254 248 239 228 223 220 219 215 210 213 216 217 217 217 216 210 202 197 193
155 198 220 233 233 180 206 215 213 214 223 235 239 254 257 240 244 252 254 262 272 276 271 274 267 260 251 243 236 229 227 221 214 211 213 218 219 218 218 216 210 204 198 195
177 214 230 248 255 234 229 229 217 219 228 237 247 252 260 259 254 256 262 272 281 283 282 277 272 268 262 252 240 234 230 220 211 212 216 222 221 219 217 213 208 203 200 201
201 222 229 244 248 247 247 244 236 232 236 243 252 258 260 269 265 259 255 256 263 267 270 272 272 270 267 261 248 238 232 221 210 215 221 223 218 213 212 209 202 200 201 200
221 218 226 249 248 249 242 235 237 240 239 240 246 254 264 265 261 259 260 253 255 261 266 269 271 272 267 266 255 246 237 218 208 217 222 218 212 209 209 203 201 204 203 200
230 226 238 256 248 245 245 242 238 241 244 241 246 257 261 264 268 264 264 261 260 262 265 268 271 275 278 273 264 254 233 212 210 218 221 214 211 210 203 202 206 207 203 202
227 231 240 246 251 257 258 244 230 237 248 244 243 251 260 266 273 272 262 245 254 262 266 271 279 283 286 281 274 247 224 215 215 220 221 214 207 203 199 203 206 205 202 203
219 222 231 240 248 249 254 246 221 225 251 251 242 249 256 260 262 268 266 229 246 261 274 287 296 290 287 296 288 227 225 216 223 223 215 201 191 191 197 200 198 195 191 195
208 219 225 237 247 252 254 242 158 213 248 260 241 243 249 250 250 266 271 213 222 268 310 310 299 307 323 325 296 208 204 224 220 165 158 166 174 178 180 174 170 164 170 171
241 240 233 236 242 245 221 175 216 256 300 287 273 258 255 258 261 260 253 225 216 247 342 11 64 32 7 358 52 101 81 70 105 118 125 132 139 147 145 147 152 157 162 164
234 236 244 245 255 284 270 246 265 275 271 273 272 267 262 263 260 250 234 208 187 179 106 85 94 70 36 20 41 86 72 88 98 99 103 111 117 122 135 144 149 153 160 168
249 263 254 258 262 273 281 276 271 269 267 271 267 260 249 250 251 236 201 175 161 135 113 107 103 84 53 33 40 57 85 100 102 104 107 114 119 122 126 134 146 155 166 173
270 285 272 269 275 285 278 279 286 286 279 276 273 260 246 243 240 220 185 165 152 130 107 100 102 92 70 51 46 33 52 100 106 106 109 114 114 120 123 123 135 155 166 180
249 252 257 264 266 273 284 287 283 280 277 272 268 268 254 229 218 173 149 136 130 120 108 97 85 79 66 57 46 23 20 85 111 112 110 110 113 113 117 119 108 104 112 152